Regional Weather Roundup
Issued by NWS Newport/Morehead, NC

Current Version | Previous Version | Graphics & Text | Print | Product List | Glossary Off
Versions: 1 2 3 4 5 6 7 8 9 10 11 12 13 14 15 16 17 18 19 20 21 22 23 24 25 26 27 28 29 30 31 32 33 34 35 36 37 38 39 40 41 42 43 44 45 46 47 48 49 50

000
ASUS42 KMHX 240414
RWRMHX
WEATHER ROUNDUP FOR EASTERN NORTH CAROLINA
NATIONAL WEATHER SERVICE NEWPORT/MOREHEAD CITY NC
1200 AM EDT SAT JUN 24 2017

NOTE: "FAIR" INDICATES FEW OR NO CLOUDS BELOW 12,000 FEET
WITH NO SIGNIFICANT WEATHER AND/OR OBSTRUCTIONS TO VISIBILITY

NCZ015>017-031-032-045>047-102-103-240500-
NORTH COAST

CITY           SKY/WX    TMP DP  RH WIND       PRES   REMARKS
EDENTON        CLEAR     81  75  82 S17       29.90F
ELIZABETH CITY CLEAR     80  75  84 S17G24    29.87F
KITTY HAWK     CLEAR     79  71  75 SW10G21   29.89F
MANTEO         CLEAR     79  72  80 SW21      29.91F

$$

NCZ045>047-081-094-103-104-240500-
CENTRAL COAST

CITY           SKY/WX    TMP DP  RH WIND       PRES   REMARKS
FRISCO         MOCLDY    80  75  84 SW16G25   29.95F

$$

NCZ095-097-098-100-101-240500-
SOUTHERN COAST

CITY           SKY/WX    TMP DP  RH WIND       PRES   REMARKS
BEAUFORT       PTCLDY    80  78  94 SW23G30   29.96F
CEDAR ISLAND   NOT AVBL
JACKSONVILLE   CLEAR     79  73  82 SW12G21   29.95S
PINEY ISLAND   PTCLDY   N/A N/A N/A SW17G31   29.96R
WILMINGTON     CLEAR     80  73  79 SW14      29.97R


$$

NCZ011>013-027>030-043-044-078>080-089-090>093-098-240500-
COASTAL PLAIN

CITY           SKY/WX    TMP DP  RH WIND       PRES   REMARKS
AHOSKIE          N/A     79  75  88 S7G17     29.86S
CLINTON        PTCLDY    79  76  90 S7        29.93F
ELIZABETHTOWN  NOT AVBL
GOLDSBORO      CLEAR     79  79 100 S12G20    29.89F
GREENVILLE     CLEAR     81  73  78 SW15G21   29.92F
HAVELOCK       PTCLDY    80  74  81 SW21G29   29.96S
KENANSVILLE    CLEAR     77  72  83 S3        29.94S
KINSTON        CLEAR     79  71  76 S15       29.93F
NEW BERN       CLEAR     78  73  84 SW12      29.95S
RICHLANDS      CLEAR     77  71  82 S12       29.96R
ROCKY MOUNT    CLOUDY    80  77  90 S14G20    29.88R
WASHINGTON     CLEAR    N/A N/A N/A S12G17    29.93R
WHITEVILLE     CLEAR     78  72  79 S12       29.97R

$$

AMZ130-135-150-152-154-156-158-170-250-252-270-ANZ085-086-088-633-658-670-240500-
MARINE OBSERVATIONS

STATION/POSITION TIME  TEMP    WIND        PRES    WAVE   SWELL
                       AIR SEA DIR/SP/G            HT/PER HT/PER
                 (UTC) (F)     (DEG/KT/KT) (MB)    (FT/S) (FT/S)
CHESAPEAKE LIGHT NOT AVBL
64 E VA BEACH    0350   74 71  210/ 21/ 23 1011.7    6/ 6   2/10
DUCK             0342   81 62  200/ 19/ 28 1011.5
2 E DUCK         NOT AVBL
OREGON INLET     0342   81 82  210/ 24/ 29 1013.0
13E OREGON INLT  0348      71                N/A     5/ 6   2/13
HATTERAS CG      0342   79 80  220/ 14/ 21 1014.1
DIAMOND BUOY     0350   81 80  220/ 23/ 29 1014.0    7/ 6   2/ 9
CAPE LOOKOUT     0400   80     220/ 13/ 21 1014.7
BEAUFORT LAB     0342   80 78  210/ 12/ 19 1014.2
30 SE NEW RVR IN 0308   80 81  220/ 19/ 27 1015.2
30 SE NEW RVR IN 0343      81                N/A     6/ 5
27 SE WRIGHTSVLE 0308   79 80  200/ 19/ 27 1014.5
5 SE WRIGHTSVLE  0308   80 79  200/ 12/ 23 1015.1
225 S CAPE HAT   0350   81 81  190/ 14/ 17 1019.1    4/ 9   3/ 9
41 SE CHARLESTON 0350   81 81  200/ 17/ 23 1016.5    5/ 5   2/ 9

$$




USA.gov is the U.S. government's official web portal to all federal, state and local government web resources and services.